Location: Franzen
(48.6167°N, 15.3833°E)
Time: 17:13:10
(UTC+00:00)

A-11 Canister half - Pass Details

Date: 01 August 2021
Orbit: 1515 x 1685 km, 47.2° (Epoch: 19 September)

Event Time Altitude Azimuth Distance (km) Brightness Sun altitude
Rises 18:54:45 0° 270° (W) 4,847 12.7 -3.5°
Reaches altitude 10° 18:57:50 10° 269° (W) 3,881 12.1 -3.9°
Maximum altitude 19:07:51 83° 184° (S) 1,687 9.2 -5.3°
Drops below altitude 10° 19:18:04 10° 98° (E) 3,950 10.6 -6.7°
Enters shadow 19:20:39 - 98° (E) 4,751 11.0 -7.0°
Sets 19:21:14 0° 98° (E) 4,937 - -7.1°
